Regional Weather Roundup
Issued by NWS

Home | Current Version | Previous Version | Graphics & Text | Print | Product List | Glossary On
Versions: 1 2 3 4 5 6 7 8 9 10 11 12 13 14 15 16 17 18 19 20 21 22 23 24 25 26 27 28 29 30 31 32 33 34 35 36 37 38 39 40 41 42 43 44 45 46 47 48 49 50
000
ASUS43 KBIS 260610
RWRND

NORTH DAKOTA REGIONAL WEATHER ROUNDUP
NATIONAL WEATHER SERVICE BISMARCK ND
100 AM CDT SUN APR 26 2015

NOTE: "FAIR" INDICATES FEW OR NO CLOUDS BELOW 12,000 FEET WITH NO
SIGNIFICANT WEATHER AND/OR OBSTRUCTIONS TO VISIBILITY.


NDZ001>003-009>011-017-260700-
NORTHWEST NORTH DAKOTA

CITY           SKY/WX    TMP DP  RH WIND       PRES   REMARKS
WILLISTON      CLOUDY    46  43  89 SW8       29.87R
6HR MIN TEMP:  46; 6HR MAX TEMP:  55; 6HR PCP:  0.01;

MINOT          CLOUDY    47  41  80 SE10      29.90R
MINOT AFB      MOCLDY    47  47  99 SE10      29.88S
$$

NDZ018>021-031>035-040>046-260700-
SOUTHWEST NORTH DAKOTA

CITY           SKY/WX    TMP DP  RH WIND       PRES   REMARKS
BISMARCK       CLOUDY    47  43  86 E6        29.93S
6HR MIN TEMP:  47; 6HR MAX TEMP:  49;

DICKINSON      LGT RAIN  44  42  93 W7        29.89R
GARRISON         N/A     46  43  89 SE8       29.91R
6HR MIN TEMP:  46; 6HR MAX TEMP:  51;

HETTINGER ARPT CLOUDY    44  42  93 NW8       29.91S FOG
$$

NDZ004>008-012>016-024-026-027-054-260700-
NORTHEAST NORTH DAKOTA

CITY           SKY/WX    TMP DP  RH WIND       PRES   REMARKS
GRAND FORKS    CLEAR     44  31  60 SE9       29.99R
GRND FRKS AFB  CLEAR     34  30  83 S5        29.99R
DEVILS LAKE    CLOUDY    46  39  76 S6        29.96S
$$

NDZ022-023-025-028>030-036>039-047>053-260700-
SOUTHEAST NORTH DAKOTA

CITY           SKY/WX    TMP DP  RH WIND       PRES   REMARKS
FARGO          CLEAR     47  29  49 SE8       30.00R
6HR MIN TEMP:  46; 6HR MAX TEMP:  62;

JAMESTOWN      CLOUDY    47  40  76 SE3       29.96R
$$




USA.gov is the U.S. government's official web portal to all federal, state and local government web resources and services.